Location: Belvedere Heights
(33.9836°N, 117.3109°W)
Time: 06:03:14
(UTC+00:00)

ISS - Visible Passes

Search period start: 26 February 2024 00:00
Search period end: 07 March 2024 00:00
Orbit: 414 x 422 km, 51.6° (Epoch: 26 February)

Date Brightness Start Highest point End Pass type
(mag) Time Alt. Az. Time Alt. Az. Time Alt. Az.
03 Mar -1.4 13:42:37 10° NNW 13:45:16 21° NNE 13:47:55 10° E visible
04 Mar -1.0 12:55:08 10° N 12:57:00 14° NNE 12:58:52 10° ENE visible
05 Mar -3.2 13:42:37 10° NW 13:45:57 59° NE 13:49:16 10° ESE visible
06 Mar -2.1 12:55:03 13° NNW 12:57:43 32° NE 13:00:47 10° ESE visible
